Time,TemperatureF,DewpointF,PressureIn,WindDirection,WindDirectionDegrees,WindSpeedMPH,WindSpeedGustMPH,Humidity,HourlyPrecipIn,Conditions,Clouds,dailyrainin,SoftwareType,DateUTC
2013-07-11 00:32:00,65.0,35.0,29.70,North,-999,0.0,0.0,33,0.00,,,-99.99,,2013-07-11 07:32:00,
2013-07-11 01:33:00,63.0,36.0,29.69,North,-999,0.0,0.0,37,0.00,,,-99.99,,2013-07-11 08:33:00,
2013-07-11 01:43:00,63.0,36.0,29.69,North,-999,0.0,0.0,37,0.00,,,-99.99,,2013-07-11 08:43:00,
2013-07-11 02:33:00,63.0,40.0,29.68,North,0,0.0,2.0,42,0.00,,,-99.99,,2013-07-11 09:33:00,
2013-07-11 02:43:00,63.0,40.0,29.68,North,0,0.0,2.0,42,0.00,,,-99.99,,2013-07-11 09:43:00,
2013-07-11 03:33:00,63.0,40.0,29.67,North,0,0.0,2.0,42,0.00,,,-99.99,,2013-07-11 10:33:00,
2013-07-11 03:42:00,63.0,40.0,29.67,North,0,0.0,2.0,42,0.00,,,-99.99,,2013-07-11 10:42:00,
2013-07-11 04:32:00,64.0,38.0,29.66,North,0,0.0,1.0,38,0.00,,,-99.99,,2013-07-11 11:32:00,
2013-07-11 04:43:00,64.0,38.0,29.66,North,0,0.0,1.0,38,0.00,,,-99.99,,2013-07-11 11:43:00,
2013-07-11 05:33:00,64.0,38.0,29.67,North,-999,0.0,0.0,38,0.00,,,-99.99,,2013-07-11 12:33:00,
2013-07-11 05:43:00,64.0,38.0,29.67,North,-999,0.0,0.0,38,0.00,,,-99.99,,2013-07-11 12:43:00,
2013-07-11 05:45:00,63.0,40.0,29.68,North,-999,0.0,0.0,42,0.00,,,-99.99,,2013-07-11 12:45:00,
2013-07-11 06:33:00,63.0,40.0,29.68,North,-999,0.0,0.0,42,0.00,,,-99.99,,2013-07-11 13:33:00,
2013-07-11 06:45:00,63.0,39.0,29.68,North,-999,0.0,0.0,41,0.00,,,-99.99,,2013-07-11 13:45:00,
2013-07-11 07:35:00,63.0,39.0,29.68,North,-999,0.0,0.0,41,0.00,,,-99.99,,2013-07-11 14:35:00,
2013-07-11 07:45:00,63.0,42.0,29.69,North,-999,0.0,0.0,47,0.00,,,-99.99,,2013-07-11 14:45:00,
2013-07-11 08:34:00,63.0,42.0,29.69,North,-999,0.0,0.0,47,0.00,,,-99.99,,2013-07-11 15:34:00,
2013-07-11 09:34:00,64.0,43.0,29.70,North,-999,0.0,0.0,46,0.00,,,-99.99,,2013-07-11 16:34:00,
2013-07-11 09:44:00,64.0,43.0,29.70,North,-999,0.0,0.0,46,0.00,,,-99.99,,2013-07-11 16:44:00,
2013-07-11 10:36:00,62.0,47.0,29.70,North,-999,0.0,0.0,59,0.00,,,-99.99,,2013-07-11 17:36:00,
2013-07-11 10:44:00,62.0,47.0,29.70,North,-999,0.0,0.0,59,0.00,,,-99.99,,2013-07-11 17:44:00,
2013-07-11 10:45:00,63.0,45.0,29.70,NE,40,1.0,4.0,51,0.00,,,-99.99,,2013-07-11 17:45:00,
2013-07-11 12:44:00,65.0,46.0,29.71,East,100,1.0,6.0,51,0.00,,,-99.99,,2013-07-11 19:44:00,
2013-07-11 12:45:00,65.0,45.0,29.72,North,350,3.0,5.0,49,0.00,,,-99.99,,2013-07-11 19:45:00,
2013-07-11 13:35:00,65.0,45.0,29.72,North,350,3.0,5.0,49,0.00,,,-99.99,,2013-07-11 20:35:00,
2013-07-11 14:33:00,64.0,47.0,29.72,NNE,20,2.0,4.0,55,0.00,,,-99.99,,2013-07-11 21:33:00,
2013-07-11 14:44:00,64.0,47.0,29.72,NNE,20,2.0,4.0,55,0.00,,,-99.99,,2013-07-11 21:44:00,
2013-07-11 14:45:00,65.0,46.0,29.71,North,0,0.0,3.0,50,0.00,,,-99.99,,2013-07-11 21:45:00,
2013-07-11 15:32:00,65.0,46.0,29.71,North,0,0.0,3.0,50,0.00,,,-99.99,,2013-07-11 22:32:00,
2013-07-11 16:33:00,65.0,45.0,29.71,NNW,340,3.0,3.0,49,0.00,,,-99.99,,2013-07-11 23:33:00,
2013-07-11 17:34:00,67.0,46.0,29.71,NNE,30,2.0,4.0,46,0.00,,,-99.99,,2013-07-12 00:34:00,
2013-07-11 17:43:00,67.0,46.0,29.71,NNE,30,2.0,4.0,46,0.00,,,-99.99,,2013-07-12 00:43:00,
2013-07-11 18:34:00,67.0,46.0,29.70,West,280,1.0,4.0,46,0.00,,,-99.99,,2013-07-12 01:34:00,
2013-07-11 18:44:00,67.0,46.0,29.70,West,280,1.0,4.0,46,0.00,,,-99.99,,2013-07-12 01:44:00,
2013-07-11 19:43:00,66.0,48.0,29.70,North,0,0.0,2.0,52,0.00,,,-99.99,,2013-07-12 02:43:00,
2013-07-11 20:34:00,64.0,48.0,29.71,North,-999,0.0,0.0,56,0.00,,,-99.99,,2013-07-12 03:34:00,
2013-07-11 20:43:00,64.0,48.0,29.71,North,-999,0.0,0.0,56,0.00,,,-99.99,,2013-07-12 03:43:00,
2013-07-11 21:32:00,61.0,48.0,29.72,North,-999,0.0,0.0,62,0.00,,,-99.99,,2013-07-12 04:32:00,
2013-07-11 21:43:00,61.0,48.0,29.72,North,-999,0.0,0.0,62,0.00,,,-99.99,,2013-07-12 04:43:00,
2013-07-11 22:32:00,59.0,47.0,29.75,North,-999,0.0,0.0,64,0.00,,,-99.99,,2013-07-12 05:32:00,
2013-07-11 22:43:00,59.0,47.0,29.75,North,-999,0.0,0.0,64,0.00,,,-99.99,,2013-07-12 05:43:00,
2013-07-11 23:32:00,59.0,45.0,29.75,North,-999,0.0,0.0,59,0.00,,,-99.99,,2013-07-12 06:32:00,
2013-07-11 23:42:00,59.0,45.0,29.75,North,-999,0.0,0.0,59,0.00,,,-99.99,,2013-07-12 06:42:00,